{"data":{"norad_id":61928,"intl_designator":"2024-207S","name":"STARLINK-32620","alt_names":[],"object_type":"PAYLOAD","status":"ACTIVE","operator":null,"country":"US","launch_date":"2024-11-11","launch_site_code":"AFETR","launch_vehicle":null,"mission":null,"orbit_class":"UNKNOWN","rcs_meters":null,"size_class":null,"mass_kg":null,"dimensions":null,"purposes":["comms"],"wikipedia_slug":null,"has_3d_model":false,"image_url":null,"decayed_at":null,"tle_current":{"epoch":"2026-09-21T15:55:10.872192Z","epoch_age_seconds":85152,"freshness":"FRESH","line1":"1 61928U 24207S   26264.66332028  .00010411  00000+0  38742-3 0  9994","line2":"2 61928  42.9977 254.9875 0001108 263.7331  96.3394 15.27571957104694","mean_motion":15.27571957,"eccentricity":0.0001108,"inclination_deg":42.9977,"raan_deg":254.9875,"arg_perigee_deg":263.7331,"mean_anomaly_deg":96.3394,"bstar":0.00038742,"rev_number":10469,"period_min":94.267245048673,"perigee_km":482.31295769286,"apogee_km":483.8334018687,"semimajor_km":6861.2101797808,"source":"CELESTRAK","updated_at":"2026-09-22T09:00:49.451900Z"}}}